IRIDIUM 106 1 41917U 17003A 26035.32599768 .00000091 00000+0 25377-4 0 9995 2 41917 86.4025 144.0887 0001849 88.4225 271.7182 14.34218179474162 IRIDIUM 103 1 41918U 17003B 26035.31332287 .00000369 00000+0 12470-3 0 9993 2 41918 86.4019 143.9946 0002493 94.6812 265.4669 14.34216498474181 IRIDIUM 109 1 41919U 17003C 26035.31965682 .00000352 00000+0 11859-3 0 9997 2 41919 86.4022 144.0492 0002115 95.8706 264.2731 14.34218023474150 IRIDIUM 102 1 41920U 17003D 26035.28793970 .00000372 00000+0 12573-3 0 9990 2 41920 86.4022 143.9891 0002083 99.2866 260.8565 14.34220343474236 IRIDIUM 105 1 41921U 17003E 26035.25788860 .00000371 00000+0 12506-3 0 9995 2 41921 86.3973 112.4793 0002204 98.1020 262.0426 14.34401187476080 IRIDIUM 104 1 41922U 17003F 26035.30062918 .00000376 00000+0 12711-3 0 9994 2 41922 86.4023 144.0243 0002442 101.4906 258.6564 14.34218655474228 IRIDIUM 114 1 41923U 17003G 26035.30696832 .00000209 00000+0 67553-4 0 9993 2 41923 86.4026 144.0057 0002434 98.0366 262.1106 14.34219576474200 IRIDIUM 108 1 41924U 17003H 26035.26549154 .00000136 00000+0 41403-4 0 9998 2 41924 86.3967 112.3635 0002081 100.2235 259.9196 14.34216887476053 IRIDIUM 112 1 41925U 17003J 26035.29428512 .00000338 00000+0 11346-3 0 9992 2 41925 86.4017 143.8590 0002205 100.5611 259.5833 14.34219272474221 IRIDIUM 111 1 41926U 17003K 26035.28160189 .00000383 00000+0 12961-3 0 9999 2 41926 86.4020 143.9318 0002160 96.0121 264.1321 14.34218423474209 IRIDIUM 113 1 42803U 17039A 26035.26156473 .00000234 00000+0 76611-4 0 9990 2 42803 86.3977 17.7125 0002344 90.0488 270.0977 14.34218532452134 IRIDIUM 123 1 42804U 17039B 26035.09373778 .00000036 00000+0 59553-5 0 9998 2 42804 86.3927 49.2586 0002368 85.4958 274.6508 14.34217527450879 IRIDIUM 120 1 42805U 17039C 26035.25522193 .00000323 00000+0 10844-3 0 9991 2 42805 86.3966 17.5149 0001962 84.4377 275.7042 14.34218518452125 IRIDIUM 115 1 42806U 17039D 26035.21136701 .00000462 00000+0 13134-3 0 9993 2 42806 86.4504 17.6436 0002306 76.9388 283.2071 14.43278602455080 IRIDIUM 118 1 42807U 17039E 26035.26498729 .00000020 00000+0 -53607-7 0 9994 2 42807 86.3928 49.1855 0002331 92.1099 268.0364 14.34217248450891 IRIDIUM 117 1 42808U 17039F 26035.07470948 .00000053 00000+0 11759-4 0 9991 2 42808 86.3925 49.2240 0002306 87.2688 272.8771 14.34217496450899 IRIDIUM 126 1 42809U 17039G 26035.30938499 .00000015 00000+0 -15863-5 0 9998 2 42809 86.3926 49.1747 0002385 89.4524 270.6946 14.34217189450903 IRIDIUM 124 1 42810U 17039H 26035.28383352 .00000502 00000+0 14335-3 0 9990 2 42810 86.4529 345.9241 0002312 81.2629 278.8834 14.43277597455941 IRIDIUM 128 1 42811U 17039J 26035.16059586 .00000314 00000+0 10500-3 0 9998 2 42811 86.3923 80.7826 0002019 89.3961 270.7467 14.34215761450914 IRIDIUM 121 1 42812U 17039K 26035.11910334 .00000147 00000+0 45592-4 0 9995 2 42812 86.3928 49.2813 0002120 91.4298 268.7140 14.34219104450758 IRIDIUM 133 1 42955U 17061A 26035.19230037 .00000040 00000+0 73402-5 0 9995 2 42955 86.3925 80.8839 0002211 91.7072 268.4377 14.34217057435719 IRIDIUM 100 1 42956U 17061B 26035.18595853 .00000278 00000+0 92134-4 0 9990 2 42956 86.3923 80.8083 0002200 93.0464 267.0983 14.34218767435714 IRIDIUM 122 1 42957U 17061C 26035.15424463 .00000112 00000+0 32774-4 0 9997 2 42957 86.3924 80.8215 0002323 91.3429 268.8033 14.34218207435715 IRIDIUM 129 1 42958U 17061D 26035.17961509 .00000127 00000+0 38219-4 0 9993 2 42958 86.3923 80.8764 0002392 101.5086 258.6379 14.34218087435731 IRIDIUM 119 1 42959U 17061E 26035.14790222 .00000148 00000+0 45791-4 0 9999 2 42959 86.3924 80.8849 0002401 95.2088 264.9382 14.34218186435744 IRIDIUM 107 1 42960U 17061F 26035.16692979 .00000258 00000+0 85031-4 0 9996 2 42960 86.3925 80.8974 0002391 85.0298 275.1171 14.34218544435753 IRIDIUM 132 1 42961U 17061G 26035.17327092 .00000221 00000+0 71829-4 0 9999 2 42961 86.3925 80.8751 0002238 90.4054 269.7398 14.34218854435751 IRIDIUM 136 1 42962U 17061H 26034.99567828 .00000256 00000+0 84520-4 0 9992 2 42962 86.3925 80.9555 0002361 92.7876 267.3590 14.34220166435745 IRIDIUM 139 1 42963U 17061J 26035.21132743 .00000182 00000+0 57916-4 0 9990 2 42963 86.3926 80.9251 0002184 91.2762 268.8684 14.34217958435780 IRIDIUM 125 1 42964U 17061K 26035.19864110 .00000209 00000+0 67738-4 0 9991 2 42964 86.3927 80.9891 0002754 88.0738 272.0773 14.34216915435791 IRIDIUM 135 1 43070U 17083A 26035.31230531 .00000184 00000+0 58500-4 0 9991 2 43070 86.3972 17.5365 0002209 88.5082 271.6367 14.34218415425109 IRIDIUM 138 1 43071U 17083B 26034.91906524 .00000134 00000+0 40935-4 0 9997 2 43071 86.3986 17.3759 0002546 91.4180 268.7307 14.34217687425039 IRIDIUM 116 1 43072U 17083C 26035.30596156 .00000202 00000+0 64979-4 0 9998 2 43072 86.3970 17.5268 0001897 82.7055 277.4356 14.34217296425129 IRIDIUM 130 1 43073U 17083D 26035.27424968 .00000057 00000+0 13270-4 0 9992 2 43073 86.3979 17.8022 0002110 80.3509 279.7925 14.34217745425066 IRIDIUM 151 1 43074U 17083E 26035.31864727 -.00000007 00000+0 -94767-5 0 9997 2 43074 86.3966 17.5759 0002056 85.9951 274.1480 14.34216455425093 IRIDIUM 134 1 43075U 17083F 26035.21716435 .00000221 00000+0 71873-4 0 9997 2 43075 86.3972 17.6248 0002227 83.6883 276.4567 14.34217882425045 IRIDIUM 137 1 43076U 17083G 26035.29961564 .00000342 00000+0 11513-3 0 9999 2 43076 86.3974 17.6805 0001716 91.2043 268.9350 14.34217010425120 IRIDIUM 141 1 43077U 17083H 26034.45605605 .00000024 00000+0 14444-5 0 9993 2 43077 86.3971 17.8714 0002272 89.2663 270.8793 14.34217492425006 IRIDIUM 153 1 43078U 17083J 26035.31522597 .00000354 00000+0 11937-3 0 9996 2 43078 86.4011 346.0176 0002470 85.0896 275.0582 14.34218943426235 IRIDIUM 131 1 43079U 17083K 26035.28058832 .00000325 00000+0 10888-3 0 9991 2 43079 86.3977 17.7038 0002239 90.1250 270.0202 14.34213346425054 IRIDIUM 144 1 43249U 18030A 26035.32156703 .00000154 00000+0 48106-4 0 9999 2 43249 86.4007 345.9470 0002020 83.1276 277.0150 14.34217967411093 IRIDIUM 149 1 43250U 18030B 26035.25814119 .00000220 00000+0 71428-4 0 9992 2 43250 86.4006 345.9422 0002243 85.7252 274.4200 14.34217722411108 IRIDIUM 157 1 43251U 18030C 26035.27716908 .00000096 00000+0 27298-4 0 9999 2 43251 86.4011 345.9844 0002163 86.2621 273.8822 14.34217915411084 IRIDIUM 140 1 43252U 18030D 26035.22642858 .00000158 00000+0 49335-4 0 9992 2 43252 86.4007 346.0185 0002188 83.7946 276.3499 14.34217989411134 IRIDIUM 145 1 43253U 18030E 26035.28351126 .00000351 00000+0 11835-3 0 9992 2 43253 86.4008 345.9672 0001924 78.2937 281.8474 14.34218351411072 IRIDIUM 146 1 43254U 18030F 26035.26448350 -.00000015 00000+0 -12425-4 0 9993 2 43254 86.4007 345.9879 0001925 82.4962 277.6453 14.34218384411084 IRIDIUM 148 1 43255U 18030G 26035.16300246 .00000432 00000+0 14732-3 0 9997 2 43255 86.4013 346.0713 0002176 86.6065 273.5380 14.34219037411103 IRIDIUM 142 1 43256U 18030H 26035.27082661 .00000339 00000+0 11414-3 0 9998 2 43256 86.4005 345.9202 0001920 77.9588 282.1823 14.34218412411086 IRIDIUM 150 1 43257U 18030J 26035.30887566 .00000389 00000+0 13193-3 0 9991 2 43257 86.4010 346.0155 0002182 83.3284 276.8160 14.34216462411118 IRIDIUM 143 1 43258U 18030K 26035.28985346 .00000230 00000+0 75014-4 0 9990 2 43258 86.4015 346.1113 0002077 80.1514 279.9916 14.34217563411041 IRIDIUM 161 1 43478U 18047C 26035.33111992 .00000486 00000+0 13862-3 0 9991 2 43478 86.4540 144.0103 0002327 101.0722 259.0741 14.43284752405978 IRIDIUM 152 1 43479U 18047D 26035.33234257 .00000083 00000+0 22638-4 0 9997 2 43479 86.4011 143.8698 0002285 98.4235 261.7220 14.34217665403440 IRIDIUM 147 1 43480U 18047E 26035.26891526 .00000057 00000+0 13294-4 0 9998 2 43480 86.4016 143.8995 0001971 96.1490 263.9930 14.34218075403433 IRIDIUM 110 1 43481U 18047F 26035.27525959 .00000381 00000+0 12889-3 0 9992 2 43481 86.4022 143.9851 0002325 104.6977 255.4476 14.34217671403423 IRIDIUM 162 1 43482U 18047G 26034.28482904 .00000465 00000+0 13217-3 0 9994 2 43482 86.4540 144.3396 0002380 92.0195 268.1279 14.43286011405812 IRIDIUM 160 1 43569U 18061A 26035.29086289 .00000318 00000+0 10650-3 0 9999 2 43569 86.3972 112.3854 0002241 100.3240 259.8209 14.34218761394320 IRIDIUM 166 1 43570U 18061B 26035.24646355 .00000077 00000+0 20277-4 0 9991 2 43570 86.3971 112.3562 0002059 96.1019 264.0411 14.34218212394346 IRIDIUM 158 1 43571U 18061C 26035.28452011 .00000317 00000+0 10598-3 0 9991 2 43571 86.3970 112.3502 0002369 93.4234 266.7233 14.34218701394314 IRIDIUM 165 1 43572U 18061D 26035.24012470 .00000318 00000+0 10640-3 0 9998 2 43572 86.3971 112.4125 0002060 95.6369 264.5062 14.34218251394337 IRIDIUM 155 1 43573U 18061E 26035.06253033 .00000091 00000+0 25325-4 0 9996 2 43573 86.3967 112.3626 0002193 91.8867 268.2580 14.34216667394274 IRIDIUM 154 1 43574U 18061F 26035.25281916 .00000289 00000+0 96119-4 0 9997 2 43574 86.3971 112.4099 0002007 96.3937 263.7488 14.34219821394358 IRIDIUM 163 1 43575U 18061G 26035.30354901 .00000328 00000+0 11002-3 0 9990 2 43575 86.3968 112.3082 0002288 96.1795 263.9661 14.34219110394331 IRIDIUM 156 1 43576U 18061H 26035.27817754 .00000169 00000+0 53118-4 0 9995 2 43576 86.3968 112.3259 0002169 90.6223 269.5221 14.34217815394324 IRIDIUM 164 1 43577U 18061J 26035.25914819 .00000317 00000+0 10597-3 0 9992 2 43577 86.3969 112.3720 0002005 99.0143 261.1280 14.34218224394364 IRIDIUM 159 1 43578U 18061K 26035.29721314 .00000318 00000+0 10647-3 0 9990 2 43578 86.3968 112.2958 0002253 99.8300 260.3150 14.34215756394335 IRIDIUM 180 1 43922U 19002A 26035.08738864 -.00000049 00000+0 -24684-4 0 9994 2 43922 86.3924 49.2228 0002235 94.1853 265.9598 14.34215775369914 IRIDIUM 176 1 43923U 19002B 26035.28213498 .00000457 00000+0 68541-4 0 9999 2 43923 86.6049 49.1035 0002465 89.9523 270.1977 14.72248980379693 IRIDIUM 168 1 43924U 19002C 26035.29035794 .00000050 00000+0 10818-4 0 9995 2 43924 86.3928 49.2111 0002260 90.9630 269.1825 14.34217899369925 IRIDIUM 173 1 43925U 19002D 26035.13813503 .00000080 00000+0 21508-4 0 9992 2 43925 86.3923 49.1691 0002331 88.5665 271.5798 14.34217785369888 IRIDIUM 169 1 43926U 19002E 26035.19205731 .00000334 00000+0 10272-3 0 9994 2 43926 86.4178 80.8112 0002778 77.5725 282.5784 14.38609956371106 IRIDIUM 172 1 43927U 19002F 26035.06202487 .00000058 00000+0 13778-4 0 9994 2 43927 86.3925 49.2085 0002263 95.1951 264.9503 14.34217503369884 IRIDIUM 175 1 43928U 19002G 26035.27748746 .00001266 00000+0 19677-3 0 9996 2 43928 86.1537 348.5033 0001293 71.5845 288.5512 14.72251225379684 IRIDIUM 171 1 43929U 19002H 26034.48484589 .00000146 00000+0 44943-4 0 9992 2 43929 86.3934 49.7418 0002066 86.9787 273.1645 14.34219187369796 IRIDIUM 170 1 43930U 19002J 26035.08441910 .00000438 00000+0 65555-4 0 9998 2 43930 86.6048 49.1897 0002361 93.0751 267.0736 14.72246644379671 IRIDIUM 167 1 43931U 19002K 26035.31571571 .00000168 00000+0 53017-4 0 9992 2 43931 86.3925 49.1235 0002091 80.9740 279.1693 14.34218779369910 IRIDIUM 181 1 56726U 23068S 26035.27133893 .00000427 00000+0 12082-3 0 9995 2 56726 86.4508 112.3732 0002019 105.5763 254.5661 14.43313649143260 IRIDIUM 177 1 56727U 23068T 26035.07981189 .00001482 00000+0 19159-3 0 9997 2 56727 86.1947 31.9826 0002396 88.2353 271.9142 14.80222262146671 IRIDIUM 174 1 56728U 23068U 26035.07204145 .00000481 00000+0 72373-4 0 9994 2 56728 86.6057 49.3289 0002529 92.8924 267.2583 14.72246345146438 IRIDIUM 178 1 56729U 23068V 26035.20414459 .00001359 00000+0 17536-3 0 9995 2 56729 86.6496 80.9531 0001977 82.3057 277.8389 14.80233974146696 IRIDIUM 179 1 56730U 23068W 26035.19876039 .00001339 00000+0 17283-3 0 9998 2 56730 86.6743 89.5450 0002267 91.3165 268.8317 14.80237783146694